Pine River, MN

7:18 AM CDT on October 21, 2017 (GMT -0500)
Pine River Regional

Weather History for KPWC - December, 2013

Change the Weather History Date:

Tuesday, December 10, 2013

  Actual Average Record
Temperature  
Mean Temperature -6 °F -  
Max Temperature 1 °F 27 °F 44 °F (2002)
Min Temperature -13 °F 12 °F -16 °F (2000)
Degree Days  
Heating Degree Days 71    
Moisture  
Dew Point -10 °F    
Average Humidity 81    
Maximum Humidity 92    
Minimum Humidity 66    
Precipitation  
Precipitation 0.00 in - - ()
Sea Level Pressure  
Sea Level Pressure 29.96 in    
Wind  
Wind Speed 3 mph (West)    
Max Wind Speed 9 mph    
Max Gust Speed -    
Visibility 8 miles    
Events Snow    
Averages and records for this station are not official NWS values.
T = Trace of Precipitation, MM = Missing Value Source: NWS Daily Summary

Daily Weather History Graph

Daily Weather History Graph

Search for Another Location

Airport or City:

Trip Planner

Search our weather history database for the weather conditions in past years. The results will help you decide how hot, cold, wet, or windy it might be!

Date:

Astronomy

Dec. 10, 2013 Rise Set
Actual Time 7:51 AM CST 4:29 PM CST
Civil Twilight 7:16 AM CST 5:04 PM CST
Nautical Twilight 6:38 AM CST 5:42 PM CST
Astronomical Twilight 6:01 AM CST 6:19 PM CST
Moon 12:50 PM CST (12/10) 12:49 AM CST (12/10)
Length of Visible Light 9h 47m
Length of Day
8h 37m
Waxing Gibbous, 62% of the Moon is Illuminated
Dec 10
Waxing Gibbous
Dec 17
Full
Dec 25
Last Quarter
Jan 1
New
Jan 7
First Quarter

Hourly Weather History & Observations

Time (CST) Temp. Windchill Dew Point Humidity Pressure Visibility Wind Dir Wind Speed Gust Speed Precip Events Conditions
12:13 AM -5.8 °F -14.5 °F -9.4 °F 84% 29.78 in 2.0 mi SE 3.5 mph - N/A Snow Light Snow
12:32 AM -4.0 °F - -7.6 °F 85% 29.78 in 1.8 mi Calm Calm - N/A Snow Light Snow
12:53 AM -4.0 °F - -7.6 °F 85% 29.78 in 1.5 mi Calm Calm - N/A Snow Light Snow
1:12 AM -4.0 °F - -7.6 °F 85% 29.77 in 1.8 mi Calm Calm - N/A Snow Light Snow
1:32 AM -4.0 °F - -7.6 °F 85% 29.77 in 1.8 mi Calm Calm - N/A Snow Light Snow
1:53 AM -5.8 °F - -7.6 °F 92% 29.78 in 2.0 mi Calm Calm - N/A Snow Light Snow
2:12 AM -5.8 °F -14.5 °F -7.6 °F 92% 29.78 in 2.0 mi NNW 3.5 mph - N/A Snow Light Snow
2:32 AM -5.8 °F - -7.6 °F 92% 29.79 in 3.0 mi Calm Calm - N/A Snow Light Snow
2:52 AM -5.8 °F - -9.4 °F 84% 29.80 in 3.0 mi Calm Calm - N/A Snow Light Snow
3:13 AM -7.6 °F -16.5 °F -9.4 °F 92% 29.81 in 7.0 mi NNW 3.5 mph - N/A   Overcast
3:32 AM -7.6 °F - -11.2 °F 84% 29.81 in 7.0 mi Calm Calm - N/A   Overcast
3:53 AM -9.4 °F -18.6 °F -11.2 °F 92% 29.82 in 10.0 mi WNW 3.5 mph - N/A   Scattered Clouds
4:13 AM -9.4 °F -20.9 °F -13.0 °F 84% 29.82 in 10.0 mi NW 4.6 mph - N/A   Scattered Clouds
4:33 AM -9.4 °F -18.6 °F -13.0 °F 84% 29.83 in 10.0 mi NW 3.5 mph - N/A   Mostly Cloudy
4:53 AM -9.4 °F -20.9 °F -14.8 °F 77% 29.84 in 10.0 mi NW 4.6 mph - N/A   Scattered Clouds
5:12 AM -11.2 °F -20.6 °F -14.8 °F 84% 29.83 in 10.0 mi NW 3.5 mph - N/A   Clear
5:33 AM -11.2 °F - -14.8 °F 84% 29.84 in 10.0 mi Calm Calm - N/A   Clear
5:52 AM -11.2 °F - -14.8 °F 84% 29.85 in 10.0 mi Calm Calm - N/A   Clear
6:13 AM -13.0 °F - -16.6 °F 84% 29.86 in 10.0 mi Calm Calm - N/A   Clear
6:33 AM -11.2 °F -20.6 °F -16.6 °F 77% 29.88 in 10.0 mi WNW 3.5 mph - N/A   Clear
6:52 AM -11.2 °F - -14.8 °F 84% 29.88 in 10.0 mi Calm Calm - N/A   Clear
7:13 AM -11.2 °F - -16.6 °F 77% 29.88 in 7.0 mi Calm Calm - N/A   Clear
7:33 AM -13.0 °F - -16.6 °F 84% 29.88 in 5.0 mi Calm Calm - N/A Snow Light Snow
7:52 AM -11.2 °F -20.6 °F -16.6 °F 77% 29.89 in 10.0 mi WSW 3.5 mph - N/A   Clear
8:13 AM -11.2 °F - -16.6 °F 77% 29.90 in 7.0 mi Calm Calm - N/A Snow Light Snow
8:33 AM -11.2 °F - -14.8 °F 84% 29.90 in 10.0 mi Calm Calm - N/A Snow Light Snow
8:51 AM -11.2 °F - -14.8 °F 84% 29.90 in 10.0 mi Calm Calm - N/A   Clear
9:13 AM -9.4 °F -18.6 °F -14.8 °F 77% 29.90 in 10.0 mi SW 3.5 mph - N/A   Clear
9:32 AM -9.4 °F - -13.0 °F 84% 29.92 in 7.0 mi Calm Calm - N/A Snow Light Snow
9:53 AM -7.6 °F - -11.2 °F 84% 29.92 in 4.0 mi Calm Calm - N/A Snow Light Snow
10:12 AM -7.6 °F -23.4 °F -11.2 °F 84% 29.93 in 10.0 mi West 8.1 mph - N/A Snow Light Snow
10:33 AM -5.8 °F -16.7 °F -9.4 °F 84% 29.95 in 10.0 mi WSW 4.6 mph - N/A Snow Light Snow
10:53 AM -5.8 °F -16.7 °F -9.4 °F 84% 29.94 in 5.0 mi West 4.6 mph - N/A Snow Light Snow
11:13 AM -2.2 °F -16.8 °F -9.4 °F 71% 29.94 in 10.0 mi West 8.1 mph - N/A   Clear
11:32 AM -2.2 °F -14.2 °F -9.4 °F 71% 29.94 in 10.0 mi West 5.8 mph - N/A   Clear
11:53 AM -0.4 °F -13.4 °F -7.6 °F 72% 29.94 in 10.0 mi West 6.9 mph - N/A   Clear
12:13 PM -0.4 °F -13.4 °F -7.6 °F 72% 29.94 in 10.0 mi West 6.9 mph - N/A   Clear
12:33 PM -0.4 °F -13.4 °F -7.6 °F 72% 29.94 in 10.0 mi West 6.9 mph - N/A   Clear
12:52 PM 1.4 °F -8.3 °F -7.6 °F 66% 29.95 in 10.0 mi West 4.6 mph - N/A   Clear
1:13 PM 1.4 °F -9.9 °F -5.8 °F 72% 29.95 in 10.0 mi West 5.8 mph - N/A   Mostly Cloudy
1:32 PM 1.4 °F -9.9 °F -5.8 °F 72% 29.95 in 10.0 mi SW 5.8 mph - N/A   Scattered Clouds
1:53 PM 1.4 °F -9.9 °F -5.8 °F 72% 29.95 in 10.0 mi SW 5.8 mph - N/A   Mostly Cloudy
2:13 PM 1.4 °F -13.5 °F -5.8 °F 72% 29.96 in 10.0 mi SW 9.2 mph - N/A   Overcast
2:32 PM 1.4 °F -9.9 °F -5.8 °F 72% 29.96 in 10.0 mi WSW 5.8 mph - N/A   Overcast
2:53 PM 1.4 °F -11.3 °F -4.0 °F 78% 29.97 in 4.0 mi WSW 6.9 mph - N/A   Haze
3:12 PM 1.4 °F -6.2 °F -4.0 °F 78% 29.97 in 3.0 mi SW 3.5 mph - N/A   Haze
3:33 PM 1.4 °F - -2.2 °F 85% 29.98 in 3.0 mi Calm Calm - N/A   Haze
3:52 PM 1.4 °F -6.2 °F -2.2 °F 85% 29.99 in 4.0 mi SW 3.5 mph - N/A   Haze
4:13 PM 1.4 °F - -4.0 °F 78% 30.00 in 7.0 mi Calm Calm - N/A   Scattered Clouds
4:33 PM 1.4 °F - -4.0 °F 78% 30.01 in 7.0 mi Calm Calm - N/A   Mostly Cloudy
4:52 PM 1.4 °F - -4.0 °F 78% 30.01 in 7.0 mi Calm Calm - N/A   Overcast
5:13 PM -0.4 °F - -4.0 °F 85% 30.02 in 7.0 mi Calm Calm - N/A   Mostly Cloudy
5:33 PM -0.4 °F -8.3 °F -4.0 °F 85% 30.03 in 10.0 mi West 3.5 mph - N/A   Scattered Clouds
5:52 PM -0.4 °F -10.4 °F -5.8 °F 78% 30.04 in 10.0 mi West 4.6 mph - N/A   Scattered Clouds
6:13 PM -0.4 °F -10.4 °F -5.8 °F 78% 30.05 in 10.0 mi WNW 4.6 mph - N/A   Overcast
6:33 PM -0.4 °F -10.4 °F -5.8 °F 78% 30.06 in 10.0 mi WNW 4.6 mph - N/A   Scattered Clouds
6:53 PM -2.2 °F -12.5 °F -5.8 °F 85% 30.08 in 10.0 mi WNW 4.6 mph - N/A   Mostly Cloudy
7:12 PM -2.2 °F -14.2 °F -7.6 °F 78% 30.09 in 10.0 mi West 5.8 mph - N/A   Scattered Clouds
7:32 PM -2.2 °F -14.2 °F -7.6 °F 78% 30.10 in 10.0 mi WNW 5.8 mph - N/A   Clear
7:53 PM -4.0 °F -17.8 °F -7.6 °F 85% 30.12 in 10.0 mi West 6.9 mph - N/A   Clear
8:12 PM -4.0 °F -16.3 °F -9.4 °F 78% 30.13 in 10.0 mi West 5.8 mph - N/A   Clear
8:32 PM -5.8 °F -18.4 °F -9.4 °F 84% 30.14 in 10.0 mi West 5.8 mph - N/A   Clear
8:53 PM -5.8 °F -21.2 °F -9.4 °F 84% 30.16 in 10.0 mi WNW 8.1 mph - N/A   Clear
9:12 PM -7.6 °F -20.6 °F -11.2 °F 84% 30.17 in 10.0 mi WNW 5.8 mph - N/A   Clear
9:33 PM -7.6 °F -18.8 °F -11.2 °F 84% 30.19 in 10.0 mi NW 4.6 mph - N/A   Clear
9:53 PM -7.6 °F -18.8 °F -13.0 °F 77% 30.20 in 10.0 mi WNW 4.6 mph - N/A   Clear
10:12 PM -9.4 °F -22.7 °F -13.0 °F 84% 30.21 in 10.0 mi West 5.8 mph - N/A   Clear
10:32 PM -9.4 °F -22.7 °F -14.8 °F 77% 30.22 in 10.0 mi WNW 5.8 mph - N/A   Clear
10:53 PM -9.4 °F -22.7 °F -14.8 °F 77% 30.22 in 10.0 mi WNW 5.8 mph - N/A   Clear
11:12 PM -9.4 °F -22.7 °F -14.8 °F 77% 30.23 in 10.0 mi WNW 5.8 mph - N/A   Clear
11:33 PM -9.4 °F -25.6 °F -14.8 °F 77% 30.24 in 10.0 mi WNW 8.1 mph - N/A   Clear
11:52 PM -11.2 °F -20.6 °F -14.8 °F 84% 30.25 in 10.0 mi West 3.5 mph - N/A   Clear